{"data":{"norad_id":56899,"epoch":"2026-05-25T01:21:34.299072Z","epoch_age_seconds":66803,"freshness":"FRESH","line1":"1 56899U 23083Z   26145.05664698  .00000886  00000+0  41715-4 0  9998","line2":"2 56899  43.0039  10.1664 0001125 254.8556 105.2172 15.27581954163454","mean_motion":15.27581954,"eccentricity":0.0001125,"inclination_deg":43.0039,"raan_deg":10.1664,"arg_perigee_deg":254.8556,"mean_anomaly_deg":105.2172,"bstar":4.1715e-5,"rev_number":16345,"period_min":94.266628132738,"perigee_km":482.27136228937,"apogee_km":483.81512784451,"semimajor_km":6861.1802450669,"source":"CELESTRAK","updated_at":"2026-05-25T13:38:18.195924Z"}}